Time,TemperatureF,DewpointF,PressureIn,WindDirection,WindDirectionDegrees,WindSpeedMPH,WindSpeedGustMPH,Humidity,HourlyPrecipIn,Conditions,Clouds,dailyrainin,SolarRadiationWatts/m^2,SoftwareType,DateUTC
2013-07-24 00:24:00,65.0,39.0,-100.00,NNE,13,4.0,8.0,38,0.00,,,0.01,0.000000,,2013-07-24 06:24:00,
2013-07-24 00:34:00,65.0,39.0,-100.00,NNE,13,4.0,8.0,38,0.00,,,0.01,0.000000,,2013-07-24 06:34:00,
2013-07-24 00:43:00,65.0,39.0,-100.00,NNE,13,4.0,8.0,38,0.00,,,0.01,0.000000,,2013-07-24 06:43:00,
2013-07-24 00:53:00,65.0,39.0,-100.00,NNE,13,4.0,8.0,38,0.00,,,0.01,0.000000,,2013-07-24 06:53:00,
2013-07-24 01:22:00,65.0,39.0,-100.00,NW,321,6.0,8.0,38,0.00,,,0.01,0.000000,,2013-07-24 07:22:00,
2013-07-24 01:32:00,65.0,39.0,-100.00,NW,321,6.0,8.0,38,0.00,,,0.01,0.000000,,2013-07-24 07:32:00,
2013-07-24 01:43:00,65.0,39.0,-100.00,NW,321,6.0,8.0,38,0.00,,,0.01,0.000000,,2013-07-24 07:43:00,
2013-07-24 01:52:00,65.0,39.0,-100.00,NW,321,6.0,8.0,38,0.00,,,0.01,0.000000,,2013-07-24 07:52:00,
2013-07-24 02:22:00,63.0,38.0,-100.00,NNE,20,3.0,7.0,40,0.00,,,0.01,0.000000,,2013-07-24 08:22:00,
2013-07-24 02:32:00,63.0,38.0,-100.00,NNE,20,3.0,7.0,40,0.00,,,0.01,0.000000,,2013-07-24 08:32:00,
2013-07-24 02:42:00,63.0,38.0,-100.00,NNE,20,3.0,7.0,40,0.00,,,0.01,0.000000,,2013-07-24 08:42:00,
2013-07-24 02:52:00,63.0,38.0,-100.00,NNE,20,3.0,7.0,40,0.00,,,0.01,0.000000,,2013-07-24 08:52:00,
2013-07-24 03:22:00,63.0,38.0,-100.00,NNE,13,2.0,6.0,40,0.00,,,0.01,0.000000,,2013-07-24 09:22:00,
2013-07-24 03:32:00,63.0,38.0,-100.00,NNE,13,2.0,6.0,40,0.00,,,0.01,0.000000,,2013-07-24 09:32:00,
2013-07-24 03:43:00,63.0,38.0,-100.00,NNE,13,2.0,6.0,40,0.00,,,0.01,0.000000,,2013-07-24 09:43:00,
2013-07-24 03:53:00,63.0,38.0,-100.00,NNE,13,2.0,6.0,40,0.00,,,0.01,0.000000,,2013-07-24 09:53:00,
2013-07-24 04:22:00,64.0,37.0,-100.00,NNW,341,2.0,4.0,37,0.00,,,0.01,0.000000,,2013-07-24 10:22:00,
2013-07-24 04:33:00,64.0,37.0,-100.00,NNW,341,2.0,4.0,37,0.00,,,0.01,0.000000,,2013-07-24 10:33:00,
2013-07-24 04:43:00,64.0,37.0,-100.00,NNW,341,2.0,4.0,37,0.00,,,0.01,0.000000,,2013-07-24 10:43:00,
2013-07-24 04:53:00,64.0,37.0,-100.00,NNW,341,2.0,4.0,37,0.00,,,0.01,0.000000,,2013-07-24 10:53:00,
2013-07-24 05:22:00,63.0,39.0,-100.00,NE,41,3.0,4.0,41,0.00,,,0.01,0.000000,,2013-07-24 11:22:00,
2013-07-24 05:32:00,63.0,39.0,-100.00,NE,41,3.0,4.0,41,0.00,,,0.01,0.000000,,2013-07-24 11:32:00,
2013-07-24 05:43:00,63.0,39.0,-100.00,NE,41,3.0,4.0,41,0.00,,,0.01,0.000000,,2013-07-24 11:43:00,
2013-07-24 05:52:00,63.0,39.0,-100.00,NE,41,3.0,4.0,41,0.00,,,0.01,0.000000,,2013-07-24 11:52:00,
2013-07-24 06:22:00,64.0,40.0,-100.00,NW,319,4.0,9.0,41,0.00,,,0.01,0.000000,,2013-07-24 12:22:00,
2013-07-24 06:32:00,64.0,40.0,-100.00,NW,319,4.0,9.0,41,0.00,,,0.01,0.000000,,2013-07-24 12:32:00,
2013-07-24 06:42:00,64.0,40.0,-100.00,NW,319,4.0,9.0,41,0.00,,,0.01,0.000000,,2013-07-24 12:42:00,
2013-07-24 06:52:00,64.0,40.0,-100.00,NW,319,4.0,9.0,41,0.00,,,0.01,0.000000,,2013-07-24 12:52:00,
2013-07-24 07:32:00,65.0,40.0,-100.00,NE,41,5.0,6.0,40,0.00,,,0.01,5.000000,,2013-07-24 13:32:00,
2013-07-24 07:43:00,65.0,40.0,-100.00,NE,41,5.0,6.0,40,0.00,,,0.01,5.000000,,2013-07-24 13:43:00,
2013-07-24 07:53:00,65.0,40.0,-100.00,NE,41,5.0,6.0,40,0.00,,,0.01,5.000000,,2013-07-24 13:53:00,
2013-07-24 08:22:00,66.0,46.0,-100.00,NW,308,3.0,7.0,48,0.00,,,0.01,73.000000,,2013-07-24 14:22:00,
2013-07-24 08:32:00,66.0,46.0,-100.00,NW,308,3.0,7.0,48,0.00,,,0.01,73.000000,,2013-07-24 14:32:00,
2013-07-24 08:43:00,66.0,46.0,-100.00,NW,308,3.0,7.0,48,0.00,,,0.01,73.000000,,2013-07-24 14:43:00,
2013-07-24 08:55:00,66.0,46.0,-100.00,NW,308,3.0,7.0,48,0.00,,,0.01,73.000000,,2013-07-24 14:55:00,
2013-07-24 09:22:00,69.0,47.0,-100.00,South,188,2.0,5.0,46,0.00,,,0.01,168.000000,,2013-07-24 15:22:00,
2013-07-24 09:33:00,69.0,47.0,-100.00,South,188,2.0,5.0,46,0.00,,,0.01,168.000000,,2013-07-24 15:33:00,
2013-07-24 09:43:00,69.0,47.0,-100.00,South,188,2.0,5.0,46,0.00,,,0.01,168.000000,,2013-07-24 15:43:00,
2013-07-24 09:52:00,69.0,47.0,-100.00,South,188,2.0,5.0,46,0.00,,,0.01,168.000000,,2013-07-24 15:52:00,
2013-07-24 10:22:00,71.0,46.0,-100.00,SW,236,3.0,9.0,41,0.00,,,0.01,268.000000,,2013-07-24 16:22:00,
2013-07-24 10:32:00,71.0,46.0,-100.00,SW,236,3.0,9.0,41,0.00,,,0.01,268.000000,,2013-07-24 16:32:00,
2013-07-24 10:43:00,71.0,46.0,-100.00,SW,236,3.0,9.0,41,0.00,,,0.01,268.000000,,2013-07-24 16:43:00,
2013-07-24 10:53:00,71.0,46.0,-100.00,SW,236,3.0,9.0,41,0.00,,,0.01,268.000000,,2013-07-24 16:53:00,
2013-07-24 11:22:00,75.0,44.0,-100.00,SE,141,4.0,9.0,33,0.00,,,0.01,405.000000,,2013-07-24 17:22:00,
2013-07-24 11:33:00,75.0,44.0,-100.00,SE,141,4.0,9.0,33,0.00,,,0.01,405.000000,,2013-07-24 17:33:00,
2013-07-24 11:43:00,75.0,44.0,-100.00,SE,141,4.0,9.0,33,0.00,,,0.01,405.000000,,2013-07-24 17:43:00,
2013-07-24 11:53:00,75.0,44.0,-100.00,SE,141,4.0,9.0,33,0.00,,,0.01,405.000000,,2013-07-24 17:53:00,
2013-07-24 12:22:00,78.0,43.0,-100.00,SSE,155,6.0,13.0,29,0.00,,,0.01,706.000000,,2013-07-24 18:22:00,
2013-07-24 12:33:00,78.0,43.0,-100.00,SSE,155,6.0,13.0,29,0.00,,,0.01,706.000000,,2013-07-24 18:33:00,
2013-07-24 12:43:00,78.0,43.0,-100.00,SSE,155,6.0,13.0,29,0.00,,,0.01,706.000000,,2013-07-24 18:43:00,
2013-07-24 12:52:00,78.0,43.0,-100.00,SSE,155,6.0,13.0,29,0.00,,,0.01,706.000000,,2013-07-24 18:52:00,
2013-07-24 13:53:00,80.0,37.0,-100.00,SE,143,10.0,14.0,21,0.00,,,0.01,902.000000,,2013-07-24 19:53:00,
2013-07-24 14:23:00,80.0,38.0,-100.00,SE,141,8.0,17.0,22,0.00,,,0.01,687.000000,,2013-07-24 20:23:00,
2013-07-24 14:32:00,80.0,38.0,-100.00,SE,141,8.0,17.0,22,0.00,,,0.01,687.000000,,2013-07-24 20:32:00,
2013-07-24 14:43:00,80.0,38.0,-100.00,SE,141,8.0,17.0,22,0.00,,,0.01,687.000000,,2013-07-24 20:43:00,
2013-07-24 14:52:00,80.0,38.0,-100.00,SE,141,8.0,17.0,22,0.00,,,0.01,687.000000,,2013-07-24 20:52:00,
2013-07-24 15:22:00,82.0,37.0,-100.00,WSW,237,6.0,12.0,20,0.00,,,0.01,492.000000,,2013-07-24 21:22:00,
2013-07-24 15:32:00,82.0,37.0,-100.00,WSW,237,6.0,12.0,20,0.00,,,0.01,492.000000,,2013-07-24 21:32:00,
2013-07-24 15:43:00,82.0,37.0,-100.00,WSW,237,6.0,12.0,20,0.00,,,0.01,492.000000,,2013-07-24 21:43:00,
2013-07-24 15:52:00,82.0,37.0,-100.00,WSW,237,6.0,12.0,20,0.00,,,0.01,492.000000,,2013-07-24 21:52:00,
2013-07-24 16:22:00,78.0,39.0,-100.00,WSW,253,4.0,14.0,25,0.00,,,0.01,437.000000,,2013-07-24 22:22:00,
2013-07-24 16:32:00,78.0,39.0,-100.00,WSW,253,4.0,14.0,25,0.00,,,0.01,437.000000,,2013-07-24 22:32:00,
2013-07-24 16:43:00,78.0,39.0,-100.00,WSW,253,4.0,14.0,25,0.00,,,0.01,437.000000,,2013-07-24 22:43:00,
2013-07-24 16:53:00,78.0,39.0,-100.00,WSW,253,4.0,14.0,25,0.00,,,0.01,437.000000,,2013-07-24 22:53:00,
2013-07-24 17:22:00,82.0,39.0,-100.00,South,182,8.0,12.0,22,0.00,,,0.01,457.000000,,2013-07-24 23:22:00,
2013-07-24 17:32:00,82.0,39.0,-100.00,South,182,8.0,12.0,22,0.00,,,0.01,457.000000,,2013-07-24 23:32:00,
2013-07-24 17:43:00,82.0,39.0,-100.00,South,182,8.0,12.0,22,0.00,,,0.01,457.000000,,2013-07-24 23:43:00,
2013-07-24 17:52:00,82.0,39.0,-100.00,South,182,8.0,12.0,22,0.00,,,0.01,457.000000,,2013-07-24 23:52:00,
2013-07-24 18:22:00,77.0,38.0,-100.00,SSW,212,7.0,16.0,25,0.00,,,0.01,188.000000,,2013-07-25 00:22:00,
2013-07-24 18:33:00,77.0,38.0,-100.00,SSW,212,7.0,16.0,25,0.00,,,0.01,188.000000,,2013-07-25 00:33:00,
2013-07-24 18:43:00,77.0,38.0,-100.00,SSW,212,7.0,16.0,25,0.00,,,0.01,188.000000,,2013-07-25 00:43:00,
2013-07-24 18:52:00,77.0,38.0,-100.00,SSW,212,7.0,16.0,25,0.00,,,0.01,188.000000,,2013-07-25 00:52:00,
2013-07-24 19:22:00,72.0,39.0,-100.00,North,350,7.0,19.0,30,0.00,,,0.00,73.000000,,2013-07-25 01:22:00,
2013-07-24 19:32:00,72.0,39.0,-100.00,North,350,7.0,19.0,30,0.00,,,0.00,73.000000,,2013-07-25 01:32:00,
2013-07-24 19:43:00,72.0,39.0,-100.00,North,350,7.0,19.0,30,0.00,,,0.00,73.000000,,2013-07-25 01:43:00,
2013-07-24 19:53:00,72.0,39.0,-100.00,North,350,7.0,19.0,30,0.00,,,0.00,73.000000,,2013-07-25 01:53:00,
2013-07-24 20:33:00,61.0,53.0,-100.00,SE,129,9.0,24.0,75,0.00,,,0.00,16.000000,,2013-07-25 02:33:00,
2013-07-24 20:43:00,61.0,53.0,-100.00,SE,129,9.0,24.0,75,0.00,,,0.00,16.000000,,2013-07-25 02:43:00,
2013-07-24 20:52:00,61.0,53.0,-100.00,SE,129,9.0,24.0,75,0.00,,,0.00,16.000000,,2013-07-25 02:52:00,
2013-07-24 21:24:00,56.0,54.0,-100.00,NNE,16,3.0,15.0,93,0.14,,,0.14,1.000000,,2013-07-25 03:24:00,
2013-07-24 21:44:00,56.0,54.0,-100.00,NNE,16,3.0,15.0,93,0.14,,,0.14,1.000000,,2013-07-25 03:44:00,
2013-07-24 21:52:00,56.0,54.0,-100.00,NNE,16,3.0,15.0,93,0.14,,,0.14,1.000000,,2013-07-25 03:52:00,
2013-07-24 22:22:00,55.0,53.0,-100.00,NE,41,2.0,6.0,94,0.00,,,-99.99,0.000000,,2013-07-25 04:22:00,
2013-07-24 22:32:00,55.0,53.0,-100.00,NE,41,2.0,6.0,94,0.00,,,-99.99,0.000000,,2013-07-25 04:32:00,
2013-07-24 22:43:00,55.0,53.0,-100.00,NE,41,2.0,6.0,94,0.00,,,-99.99,0.000000,,2013-07-25 04:43:00,
2013-07-24 22:53:00,55.0,53.0,-100.00,NE,41,2.0,6.0,94,0.00,,,-99.99,0.000000,,2013-07-25 04:53:00,
2013-07-24 23:22:00,54.0,51.0,-100.00,North,3,4.0,6.0,90,0.00,,,0.14,0.000000,,2013-07-25 05:22:00,
2013-07-24 23:32:00,54.0,51.0,-100.00,North,3,4.0,6.0,90,0.00,,,0.14,0.000000,,2013-07-25 05:32:00,
2013-07-24 23:43:00,54.0,51.0,-100.00,North,3,4.0,6.0,90,0.00,,,0.14,0.000000,,2013-07-25 05:43:00,
2013-07-24 23:52:00,54.0,51.0,-100.00,North,3,4.0,6.0,90,0.00,,,0.14,0.000000,,2013-07-25 05:52:00,